Lapse_Rate
8.0 8.0 7.9 7.6 8.3 8.7 8.3 8.2 8.4 8.3 8.4 8.5 8.0 7.7 7.5 7.8 7.4 7.5 7.3 7.8 8.2 8.3 8.5 8.7 8.3 8.5 8.7 7.4 6.7 6.7 6.9 6.4 7.1 7.0 6.9 5.9 5.1 5.4 6.1 6.4 6.8 5.7 8.1
8.0 7.6 7.7 7.4 8.3 8.5 9.0 8.6 7.9 7.9 7.8 8.3 7.9 8.5 7.7 8.0 7.6 7.7 6.9 7.1 7.7 8.2 8.8 8.9 9.1 9.0 8.8 8.9 8.3 7.5 7.6 7.3 7.3 7.2 7.7 6.7 5.6 5.1 6.5 7.9 7.7 6.8 6.3
8.4 7.7 7.3 7.3 8.0 9.1 8.8 8.6 8.6 8.3 7.6 8.3 7.5 8.4 8.2 8.4 8.2 7.6 7.4 7.3 7.6 7.5 7.5 8.6 8.3 8.4 8.7 8.9 5.8 8.4 7.7 7.8 8.0 7.7 7.5 8.2 6.7 6.1 6.9 8.6 8.6 7.5 8.0
8.6 7.5 6.9 6.8 8.5 8.4 8.2 7.5 6.8 5.8 6.0 6.3 6.2 6.8 7.5 8.3 8.8 8.4 9.0 8.1 7.8 6.9 6.6 7.1 7.0 7.3 7.2 6.7 8.0 5.3 6.3 7.8 8.5 8.6 8.4 8.1 8.1 7.1 8.2 8.3 8.3 7.9 8.1
8.4 7.7 7.1 7.4 8.0 7.5 7.2 7.4 6.1 6.0 5.9 6.2 6.6 6.0 7.0 7.3 8.0 8.6 8.1 8.3 8.5 6.9 6.8 6.7 6.6 6.4 6.6 6.5 8.5 5.2 4.6 4.5 4.4 4.7 5.8 7.2 7.6 7.3 8.4 8.3 8.4 7.9 8.4
8.2 7.8 7.3 7.4 7.6 6.5 6.1 6.3 6.2 6.1 5.9 6.1 8.1 6.7 5.9 7.0 7.9 7.7 8.0 7.7 7.6 7.6 6.3 5.7 5.9 6.0 5.8 5.7 5.9 5.7 5.0 4.7 4.2 4.8 7.7 8.4 8.2 7.9 8.8 8.0 8.0 8.1 8.1
7.5 7.4 6.7 6.8 7.2 5.9 6.4 6.4 6.2 6.2 6.0 6.0 5.3 5.5 5.6 6.5 6.5 7.0 7.9 7.5 7.6 7.2 7.2 6.8 5.7 5.4 5.2 5.2 5.1 5.2 5.4 5.1 4.9 5.7 6.4 7.3 8.1 8.7 8.4 8.6 9.0 8.5 7.9
6.1 6.4 5.7 5.4 6.1 5.9 6.3 6.4 6.4 6.0 5.5 5.3 5.1 4.8 4.9 5.5 5.9 6.2 6.7 7.2 6.7 7.1 6.8 6.8 6.9 5.9 4.9 4.9 5.0 5.0 5.1 5.5 5.7 5.3 5.8 6.5 8.2 8.3 7.6 7.8 8.9 8.6 8.7
5.8 5.8 5.5 5.3 5.4 5.7 5.3 5.9 5.5 5.9 5.1 5.3 5.5 5.3 5.1 5.3 4.6 4.7 5.2 5.1 5.7 5.7 6.0 6.4 6.5 6.5 6.5 5.1 5.3 5.2 5.0 5.0 5.3 5.9 6.2 6.6 7.0 8.7 8.8 8.0 8.2 8.7 8.3
5.3 5.3 4.8 5.1 4.5 5.2 5.0 5.3 5.1 4.2 4.3 4.5 4.5 4.6 4.0 4.2 5.0 4.6 4.5 4.8 4.7 4.7 5.3 5.8 5.8 6.2 6.6 6.1 5.3 5.0 5.1 5.2 5.2 5.7 6.5 7.2 7.8 8.1 9.3 9.0 8.4 8.5 8.8
4.4 4.6 4.5 3.6 3.2 4.0 4.3 4.2 4.4 4.5 4.3 3.8 4.2 3.8 4.3 4.2 4.4 4.3 4.1 4.5 4.6 4.7 5.0 5.5 5.9 6.3 6.1 6.5 6.0 5.5 5.1 5.0 5.1 5.7 6.3 6.9 7.7 8.2 8.5 8.6 9.1 9.1 8.7
3.7 3.9 4.2 4.1 4.0 3.9 3.8 3.9 4.6 4.1 4.3 4.1 3.9 3.8 4.0 4.1 4.2 4.2 4.3 4.5 4.5 4.8 4.7 5.4 5.8 6.0 6.5 6.5 6.3 5.9 5.4 5.0 4.7 5.3 6.0 6.7 7.1 7.4 7.6 8.0 8.3 8.5 9.0
3.4 3.6 4.2 4.0 3.9 3.7 4.0 4.3 3.2 3.3 4.1 3.8 4.0 3.8 4.1 4.7 5.5 5.2 5.2 4.8 4.9 4.7 5.2 4.9 6.4 6.9 6.7 6.6 6.4 6.2 5.6 5.1 4.6 4.4 5.4 6.4 6.6 6.6 6.6 7.1 7.4 7.9 8.5
4.0 4.5 4.7 5.1 4.5 4.4 4.6 4.3 3.3 3.2 4.7 3.3 3.9 3.5 3.7 5.2 5.7 5.3 5.1 4.7 4.6 4.4 4.4 5.0 5.2 6.7 7.2 7.0 6.7 6.5 5.6 5.3 4.9 4.4 4.5 5.4 5.7 5.6 6.0 6.4 6.6 6.9 7.8
3.5 3.4 4.4 5.1 5.1 4.0 4.7 4.1 3.9 3.7 4.1 4.0 3.6 3.5 3.7 4.2 4.8 5.1 5.5 4.8 4.3 4.9 4.5 4.3 5.0 6.1 6.6 7.0 6.6 6.0 5.5 5.5 5.4 5.1 4.7 4.7 4.9 4.9 5.0 5.5 6.2 6.5 6.9
4.1 4.0 4.5 4.8 5.1 4.8 4.9 4.4 4.0 4.3 4.5 4.6 4.1 3.4 3.2 3.3 3.6 4.2 4.9 4.4 4.6 4.3 4.9 4.5 4.4 4.7 6.4 6.3 6.7 6.4 6.2 6.1 6.0 5.5 5.1 4.9 4.7 4.6 4.5 4.6 4.8 5.4 6.0
4.6 5.2 5.7 6.0 6.4 5.0 4.6 4.3 4.3 4.6 4.8 5.5 6.4 5.4 3.9 3.5 3.1 3.4 3.4 3.9 4.1 4.1 4.2 3.9 4.6 5.1 5.1 5.1 5.8 6.0 6.1 6.1 6.0 5.7 5.4 4.8 4.4 4.6 4.4 4.2 4.3 4.3 4.7
3.3 3.7 3.9 4.9 5.1 5.7 6.6 6.5 5.4 5.1 5.2 5.3 6.1 6.4 5.2 5.0 3.8 3.7 3.5 3.6 3.7 3.8 4.0 4.3 4.2 4.4 4.9 5.5 6.1 5.5 6.0 6.7 6.4 6.4 6.3 5.9 5.2 4.6 4.3 4.2 4.0 4.0 4.0
1.9 2.2 2.4 3.2 3.9 5.2 5.5 5.4 5.2 5.6 5.6 5.5 5.6 5.7 5.6 5.3 4.7 4.5 4.5 3.8 3.8 4.7 4.1 4.1 4.2 3.9 3.9 4.5 4.6 5.5 5.5 5.7 6.3 6.6 6.1 5.7 5.2 4.7 4.0 4.0 4.1 3.9 3.9
1.2 2.1 2.0 2.5 3.0 3.8 5.1 6.6 7.0 6.8 6.2 5.4 5.3 5.6 5.8 5.6 5.3 4.7 4.6 4.3 4.5 4.3 4.0 4.1 4.1 3.8 3.6 3.8 4.3 4.4 3.9 3.6 3.5 5.6 5.8 5.5 5.0 4.5 4.0 3.1 2.9 3.9 3.9
1.1 1.8 2.4 2.6 4.0 4.6 4.8 5.0 6.2 6.3 5.7 4.6 4.5 5.1 5.3 5.6 5.5 5.3 5.0 4.6 4.6 4.2 4.1 4.1 4.0 3.6 3.7 3.9 4.4 4.4 3.9 3.3 3.3 4.5 3.6 3.6 4.1 3.8 4.1 3.9 3.3 3.4 4.1
2.8 3.5 3.7 3.3 3.8 4.8 1.8 2.0 3.5 5.7 5.8 5.4 4.5 4.6 5.1 4.1 3.4 3.9 3.9 5.0 4.1 4.2 4.2 4.1 3.8 3.8 3.8 3.8 4.1 4.3 3.7 3.6 3.8 4.4 3.3 3.0 4.4 2.6 4.2 3.9 4.2 4.4 4.0
2.5 3.3 3.7 3.7 3.5 4.3 2.3 2.6 1.7 4.3 5.2 5.2 5.3 4.5 4.5 5.3 4.2 4.4 3.0 3.3 3.4 3.4 4.1 4.6 4.9 4.6 4.7 4.9 4.6 4.0 3.7 3.6 3.5 3.7 4.6 2.8 2.7 2.2 4.5 4.6 4.6 4.4 4.2
1.8 2.9 3.7 3.8 3.5 4.0 3.0 2.6 1.9 3.2 4.3 5.2 5.1 4.9 5.6 5.1 5.0 4.5 4.2 3.6 3.1 3.0 3.1 3.3 4.1 5.1 5.1 5.2 4.8 4.7 4.6 5.3 4.6 3.7 4.7 3.9 2.5 2.2 3.1 4.1 3.4 3.9 3.9
1.8 2.4 2.8 3.3 4.0 3.9 3.2 2.9 2.4 2.9 4.1 4.9 5.3 5.4 5.3 5.2 4.6 3.1 4.6 4.5 4.4 4.3 4.9 5.0 5.1 5.2 5.4 5.8 6.0 4.2 4.3 4.7 5.2 3.9 3.0 3.7 3.0 2.5 1.3 1.2 2.8 2.0 2.4
2.2 2.3 3.4 3.5 4.4 5.1 3.3 2.7 3.0 4.1 4.8 5.4 5.7 5.2 4.3 4.2 4.8 3.4 4.7 5.0 5.1 4.9 4.8 4.5 3.9 3.7 4.8 4.5 4.9 4.0 5.0 4.9 4.0 1.4 2.1 3.1 2.3 3.1 2.9 0.3 -0.5 0.4 0.1
Wind_Speed
13 14 14 15 15 17 10 13 13 14 15 14 19 22 17 19 20 16 17 16 16 17 17 16 13 12 15 17 18 19 21 18 20 20 20 20 19 19 20 20 20 19 18
15 11 13 11 15 13 14 14 14 13 12 13 14 13 15 17 20 18 16 17 19 18 17 14 14 14 12 11 13 17 17 17 18 17 17 18 18 17 17 18 18 19 19
16 14 10 12 14 18 15 15 15 17 11 11 9 12 16 13 15 16 17 17 18 16 14 11 15 15 15 13 11 9 14 15 14 15 14 15 16 15 15 16 17 16 17
19 13 10 7 18 15 16 12 8 5 5 4 4 7 12 12 10 15 14 11 15 14 14 15 14 12 11 11 12 10 8 11 13 13 13 13 14 13 13 14 14 15 17
15 16 12 9 17 15 12 8 4 5 4 4 4 4 9 8 8 13 14 10 10 12 12 10 11 11 10 10 8 10 10 10 9 9 10 11 11 10 10 12 13 16 18
17 16 13 12 14 9 5 5 5 4 4 4 4 4 4 6 10 10 11 12 10 7 10 10 9 9 8 8 9 8 8 9 8 9 8 10 12 9 11 11 14 17 16
18 15 13 12 11 5 5 6 4 6 3 4 4 3 3 3 4 4 7 11 9 10 7 7 8 9 7 7 6 5 6 6 8 7 9 13 11 8 7 11 13 12 14
18 15 14 9 10 4 6 5 5 3 3 4 4 3 3 2 1 2 2 3 6 8 7 5 6 8 9 8 6 5 3 3 3 5 5 6 9 10 11 9 10 11 11
17 16 17 13 11 8 4 5 5 5 4 2 5 2 2 2 3 1 2 2 4 4 4 7 5 5 4 11 7 6 4 3 1 2 3 4 4 5 6 10 9 11 8
15 17 17 16 10 8 5 4 8 4 4 3 2 2 2 2 2 1 1 3 3 4 5 3 4 7 6 5 6 7 7 5 3 2 4 1 2 2 3 4 6 8 7
15 15 15 13 11 9 8 6 7 5 3 3 2 2 1 2 2 3 2 2 1 2 6 7 8 6 9 9 8 8 8 7 6 4 4 3 5 2 2 2 4 3 5
7 12 13 13 13 9 8 9 7 6 5 4 4 3 3 2 2 2 1 2 3 2 3 6 7 9 8 8 8 8 11 10 9 7 6 5 4 3 4 3 5 3 4
8 11 14 9 10 12 12 11 8 6 5 4 5 3 3 3 2 2 2 1 1 2 1 3 7 7 8 8 8 10 10 11 11 10 9 8 6 4 2 4 7 6 5
9 15 15 17 15 14 14 14 8 5 7 5 7 4 3 3 2 2 3 3 1 2 2 4 5 9 7 6 5 6 9 11 13 14 12 11 9 5 5 6 5 7 9
8 9 13 11 14 16 15 12 6 6 5 5 5 5 3 3 4 3 3 3 4 2 2 3 3 7 12 8 4 4 7 10 12 14 16 15 14 11 9 8 8 7 8
10 11 10 10 11 13 15 12 8 8 9 6 5 7 6 4 4 3 3 3 3 4 2 3 3 3 8 8 6 6 8 10 10 12 15 16 17 16 14 13 12 10 11
8 10 9 8 9 8 7 6 7 7 8 8 7 8 7 6 4 4 4 3 3 3 4 3 2 5 5 5 5 9 9 10 10 12 14 16 17 18 18 18 17 15 14
5 6 5 4 4 4 6 8 8 6 7 7 7 8 7 5 6 6 4 6 4 4 4 5 2 3 4 6 6 4 7 11 11 11 12 15 15 17 19 20 20 20 18
5 6 5 5 4 1 4 5 5 5 5 5 6 6 7 6 6 4 4 5 4 4 4 3 4 2 3 2 2 2 6 9 12 15 14 14 16 17 18 20 21 22 21
6 5 6 5 3 3 4 3 5 6 2 1 3 4 5 7 7 7 6 6 5 4 3 3 3 3 2 3 1 3 3 2 4 12 15 16 15 15 15 20 20 22 22
6 4 5 5 1 1 1 3 1 5 7 5 5 5 5 7 9 8 4 5 5 4 3 3 2 2 2 2 3 2 3 2 2 5 4 9 13 13 15 18 20 22 24
7 6 5 4 3 2 8 8 3 1 6 6 4 5 5 8 8 9 9 8 7 6 5 4 3 4 5 4 3 3 2 1 3 2 1 3 5 5 17 17 19 20 22
7 6 5 5 4 4 7 8 8 1 2 3 5 4 4 3 8 6 8 9 9 8 6 4 5 6 4 5 3 3 4 3 4 3 1 3 2 4 17 21 19 20 20
8 5 4 4 4 4 7 7 5 1 2 5 5 5 5 5 6 6 5 5 6 5 8 7 5 6 5 8 7 6 5 3 1 2 3 3 1 5 9 15 15 16 17
5 6 5 6 4 4 6 8 6 3 3 4 4 5 6 6 7 8 5 6 5 6 12 17 19 20 19 17 13 3 3 3 4 3 5 3 3 3 3 4 16 14 12
6 6 5 5 7 3 10 9 7 2 2 2 3 4 7 6 3 6 5 6 6 5 4 3 3 9 18 19 19 11 5 6 5 1 4 5 3 3 3 2 4 8 11
Wind_Direction
142 151 154 163 149 155 162 115 105 88 77 68 81 89 103 100 100 92 80 74 76 75 74 80 76 69 71 68 64 63 65 73 77 69 64 59 56 54 50 53 54 54 51
153 155 160 132 135 138 121 119 108 98 86 79 88 91 111 117 112 104 91 87 83 79 74 70 77 75 72 64 62 61 66 64 68 68 67 62 56 54 47 54 54 52 51
143 135 133 131 147 140 147 131 123 108 99 89 93 96 101 99 121 122 116 104 90 81 74 82 82 71 70 72 70 64 63 63 59 56 63 62 58 53 52 54 51 54 57
142 138 140 134 146 144 124 120 112 101 105 105 93 87 100 111 105 131 122 131 116 101 87 88 78 73 69 61 74 68 56 31 35 36 40 56 50 53 54 54 49 60 60
142 129 134 134 133 121 120 123 110 115 115 113 118 121 125 138 137 112 122 101 111 127 113 112 99 87 76 68 71 76 67 59 57 50 40 42 54 57 57 63 52 63 66
151 139 136 135 128 123 123 120 121 123 133 138 105 82 93 97 118 123 127 127 127 134 144 138 131 117 104 85 82 77 73 64 64 49 43 84 61 77 64 71 61 55 58
155 146 137 139 139 131 148 143 138 135 118 115 94 64 65 70 72 91 120 134 137 130 137 130 163 145 141 127 108 92 92 82 75 62 33 62 59 70 76 72 65 49 49
151 147 140 145 146 147 147 147 132 120 128 148 149 146 125 350 29 159 102 115 151 146 146 143 133 149 175 161 143 133 112 102 82 74 60 35 52 57 64 63 73 54 46
156 152 148 147 156 157 157 149 145 133 151 182 67 155 107 138 140 213 186 206 158 158 182 177 177 175 176 168 168 173 174 175 154 94 106 76 39 31 42 51 65 63 56
153 156 151 157 145 154 148 139 140 140 128 151 74 78 66 117 150 96 336 226 180 173 190 209 218 207 201 192 188 199 197 195 197 215 187 191 93 117 66 55 52 56 37
149 149 154 147 150 146 144 138 143 155 163 146 154 120 31 12 53 117 166 266 329 207 192 199 221 223 217 209 209 205 206 214 220 228 237 267 249 283 286 221 145 91 50
145 152 154 163 157 154 154 160 160 179 187 148 174 151 153 158 201 123 130 172 172 232 196 203 207 214 217 211 219 220 213 219 227 237 244 254 268 307 298 266 188 157 124
158 168 166 162 164 167 169 163 164 179 193 162 176 175 186 203 159 155 132 213 133 253 214 228 222 210 201 203 223 226 221 225 232 239 246 252 259 277 280 278 247 216 181
168 169 172 171 166 173 178 179 176 179 188 179 186 184 177 213 238 167 159 140 347 273 245 231 211 186 180 188 218 225 229 234 238 242 245 250 256 266 255 263 283 239 222
167 160 166 166 175 177 182 168 174 180 171 177 182 183 192 217 220 194 170 165 157 201 272 272 170 199 165 177 218 234 243 247 242 243 244 245 247 246 249 256 266 263 235
166 172 175 184 183 184 176 171 179 182 181 182 182 182 200 210 213 203 181 177 174 170 200 211 232 185 185 168 197 229 251 260 255 253 250 248 246 246 245 246 250 253 247
135 166 166 168 171 169 169 165 172 176 181 188 173 180 195 200 210 205 179 184 214 180 197 279 218 200 174 193 204 235 249 247 259 262 259 255 250 246 245 244 245 246 246
72 91 74 120 153 166 167 172 186 193 189 196 189 176 190 193 200 204 190 199 200 204 179 219 248 232 211 218 222 214 231 238 248 261 267 263 263 259 251 248 246 245 245
55 78 82 55 42 112 187 188 185 190 195 196 199 183 188 195 195 193 187 189 201 210 202 179 228 220 222 198 200 238 247 249 251 262 261 264 264 264 259 252 249 247 246
70 74 88 81 36 17 2 284 190 180 218 203 265 222 203 197 197 197 198 201 196 197 200 192 206 238 219 255 165 220 271 256 259 263 258 256 267 270 272 263 257 254 249
32 43 96 93 77 40 298 347 256 184 171 199 261 258 231 224 216 203 182 201 192 200 187 197 200 190 223 225 207 208 224 254 286 242 251 253 256 265 266 265 262 256 253
26 24 45 82 97 52 49 31 356 165 169 172 240 281 257 232 232 225 216 205 183 184 194 176 200 204 227 213 204 211 205 184 301 311 211 277 243 260 268 263 263 264 254
35 21 28 31 37 49 49 42 34 37 143 198 214 260 299 277 218 213 228 223 216 207 201 195 209 208 215 210 183 185 211 195 225 247 141 266 239 264 271 269 270 260 256
39 11 6 25 40 51 45 39 14 66 247 215 217 234 252 262 236 205 202 211 221 215 225 226 233 254 224 218 204 197 205 208 241 252 178 259 219 262 266 268 259 255 254
27 14 360 355 18 23 52 32 18 354 255 235 236 220 229 233 226 209 198 207 212 224 238 239 240 251 261 256 248 146 230 216 258 226 194 217 246 258 263 257 249 245 245
359 13 349 358 345 2 58 45 25 354 319 259 233 245 249 251 230 221 205 211 225 227 208 211 229 255 258 260 265 230 231 237 244 313 218 191 208 194 299 282 296 243 242